Location: Sihaung
(22.8641°N, 94.0549°E)
Time: 17:01:47
(UTC+00:00)

USA 234 - Pass Details

Date: 03 March 2021
Orbit: 1102 x 1105 km, 123.0° (Epoch: 13 April)

Event Time Altitude Azimuth Distance (km) Brightness Sun altitude
Rises 22:39:49 0° 158° (SSE) 3,906 6.4 -19.9°
Reaches altitude 10° 22:42:26 10° 165° (SSE) 2,950 5.7 -19.3°
Maximum altitude 22:48:31 42° 235° (SW) 1,516 3.6 -17.9°
Enters shadow 22:52:18 22° 292° (WNW) 2,190 4.3 -17.0°
